Home > Weather > Oberlin > Past weeks

Flag for USA Past Weather in Oberlin, Ohio, USA — Yesterday and Last 2 Weeks

Now
71 °F

Clear.


Feels Like: 69 °F
Forecast: 69 / 82 °F
Wind: 3 mph from Northeast

Location: Lorain County Regional Airport

Current Time: Jul 29, 2016 at 11:45:07 PM

Latest Report: Jul 29, 2016 at 10:53 PM


Visibility: 10 mi

Pressure: 29.94 "Hg

Humidity: 87%

Dew Point: 67 °F

Location of OberlinLocation

Past Weather in Oberlin — Graph

°F

Oberlin Temperature Yesterday

Maximum temperature yesterday: 83 °F (at 4:53 PM)
Minimum temperature yesterday: 64 °F (at 3:53 AM)
Average temperature yesterday: 73 °F

High & Low Weather Summary for the Past Weeks

 TemperatureHumidityPressure
High89 °F (Jul 21, 1:53 PM)97% (Jul 17, 6:53 AM)30.29 "Hg (Jul 17, 6:53 AM)
Low56 °F (Jul 20, 6:53 AM)37% (Jul 20, 2:53 PM)29.86 "Hg (Jul 28, 4:53 PM)
Average75 °F70%30.03 "Hg
* Reported Jul 14 9:53 PM — Jul 29 9:53 PM, Oberlin, Weather by CustomWeather, © 2016

Note: Actual official high and low records may vary slightly from our data, if they occured in-between our weather recording intervals... More about our weather records

Advertising

Oberlin Weather History for the Previous 24 Hours

Scroll right to see more
 ConditionsComfort  
Time TempWeatherWind HumidityBarometerVisibility
9:53 PM
Fri, Jul 29
71 °FClear.No wind87%29.95 "Hg10 mi
8:53 PM73 °FPassing clouds.5 mph84%29.94 "Hg10 mi
7:53 PM75 °FLight rain. Partly sunny.No wind79%29.93 "Hg10 mi
6:53 PM76 °FScattered clouds.6 mph80%29.94 "Hg10 mi
6:02 PM77 °FScattered clouds.13 mph74%29.94 "Hg10 mi
5:53 PM78 °FPartly sunny.13 mph69%29.93 "Hg10 mi
4:53 PM80 °FSunny.13 mph67%29.90 "Hg10 mi
3:53 PM83 °FPassing clouds.9 mph63%29.91 "Hg10 mi
2:53 PM83 °FSunny.12 mph61%29.92 "Hg10 mi
1:53 PM85 °FSunny.9 mph57%29.92 "Hg10 mi
12:53 PM84 °FPassing clouds.3 mph55%29.93 "Hg10 mi
11:53 AM83 °FPassing clouds.5 mph59%29.93 "Hg10 mi
10:53 AM80 °FScattered clouds.No wind67%29.93 "Hg10 mi
9:53 AM78 °FPassing clouds.No wind71%29.93 "Hg10 mi
8:53 AM74 °FSunny.No wind85%29.94 "Hg10 mi
7:53 AM67 °FFog.No wind93%29.93 "Hg5 mi
6:59 AM63 °FFog.3 mph93%29.94 "Hg2 mi
6:53 AM63 °FFog.No wind93%29.92 "Hg3 mi
5:53 AM62 °FFog.No wind93%29.91 "Hg6 mi
4:53 AM62 °FFog.No wind93%29.90 "Hg6 mi
3:53 AM63 °FClear.No wind93%29.90 "Hg8 mi
2:53 AM63 °FFog.5 mph93%29.91 "Hg5 mi
1:53 AM63 °FClear.No wind90%29.90 "Hg9 mi
12:53 AM64 °FClear.No wind90%29.90 "Hg10 mi
11:53 PM
Thu, Jul 28
65 °FClear.No wind87%29.90 "Hg10 mi
Weather by CustomWeather, © 2016

See weather overviewHow to use our weather pages